Wetbulb
17.16 18.32 18.91 18.72 18.33 18.21 15.47 15.13 7.73 13.25 11.62 5.74 10.02 10.34 11.14 13.04 16.13 16.68 16.74 17.67 17.80 17.92 18.34 19.20 19.89 20.92 21.90 22.90 23.99 25.34 25.68 26.36 26.98 28.86 30.17 31.79 33.93 35.14 37.91 40.49 43.62 44.65 46.96 49.61
12.86 18.70 18.37 16.80 18.33 17.27 17.94 17.40 14.85 13.90 8.02 7.35 10.77 12.14 13.81 14.38 15.26 15.27 16.02 16.93 17.91 18.30 18.42 18.70 19.30 20.36 21.67 22.09 23.01 24.69 24.97 25.50 27.22 27.83 28.98 31.15 32.24 33.45 35.68 38.24 41.81 43.67 45.91 48.82
9.13 15.32 15.59 10.65 9.68 14.49 15.60 12.69 9.41 7.21 4.15 7.99 10.60 13.18 13.05 13.46 14.56 14.63 15.54 16.49 17.19 17.35 18.07 18.75 19.57 20.90 20.50 21.76 23.06 23.56 24.69 25.42 26.56 27.05 27.90 29.61 31.08 31.91 34.22 36.93 41.12 42.02 45.12 48.29
9.27 11.99 -0.29 9.69 15.17 11.81 8.01 8.85 6.01 9.39 9.78 9.49 10.01 13.67 13.13 15.55 13.66 14.03 15.79 16.50 17.04 17.71 18.49 19.44 20.38 20.84 21.60 21.88 22.15 22.98 24.04 24.83 26.06 26.71 26.67 28.11 29.55 30.55 33.28 36.87 41.00 42.32 44.52 47.05
6.67 4.80 7.78 10.12 11.00 7.14 4.28 4.49 5.38 4.88 8.71 11.12 13.02 12.83 7.44 16.35 16.27 15.67 16.06 17.09 17.95 19.05 19.23 19.74 20.18 20.79 20.72 20.66 21.56 22.43 23.64 24.37 25.45 26.01 26.11 27.32 27.74 29.40 32.19 35.62 40.43 41.75 44.58 45.66
7.69 3.29 0.79 3.17 15.91 17.11 7.88 1.37 8.72 10.06 10.05 9.92 11.42 4.05 8.40 15.20 16.42 16.30 17.45 18.22 18.11 19.01 19.84 19.51 19.88 20.89 20.00 19.91 20.72 21.74 23.61 24.71 25.82 26.44 26.85 26.71 28.06 29.60 32.08 35.81 40.55 41.67 42.96 45.13
10.04 9.97 7.17 13.44 15.83 18.18 -1.94 -0.42 11.22 11.95 11.31 11.13 8.44 10.05 13.37 15.66 15.62 17.58 17.65 17.79 19.13 19.09 18.34 19.35 20.82 21.26 20.43 20.58 20.67 23.12 25.08 25.65 26.01 26.82 27.10 27.96 29.08 31.36 33.97 38.98 39.54 39.69 39.92 41.14
4.99 3.01 0.80 13.89 14.19 8.27 6.35 10.66 11.92 11.74 11.98 11.24 12.47 13.30 13.96 15.42 15.67 16.45 16.32 17.46 18.60 17.98 18.51 20.21 21.83 21.85 21.23 20.79 23.03 24.77 25.43 25.30 25.77 26.73 27.85 29.36 30.11 32.18 37.89 38.20 37.55 37.35 37.35 37.48
10.13 7.79 11.26 11.89 11.35 12.18 12.41 10.63 11.36 11.20 12.53 12.99 12.06 12.81 14.19 14.32 14.61 15.36 16.13 16.99 18.20 18.13 19.52 20.78 21.32 22.56 21.91 22.68 24.34 24.60 24.43 24.82 25.81 26.85 27.53 29.10 30.92 35.49 35.13 35.51 34.50 33.97 34.30 35.06
11.54 8.72 9.54 10.48 11.79 11.82 12.22 11.68 12.89 13.31 13.10 13.05 12.66 13.16 13.38 13.93 14.43 14.92 16.16 16.52 18.60 19.76 19.19 19.51 22.20 23.21 23.32 24.03 26.19 24.92 23.82 24.52 25.75 26.10 27.63 31.41 34.45 34.68 33.79 33.46 33.15 33.31 32.92 32.63
7.19 7.87 9.68 11.14 11.18 10.36 12.20 13.30 13.46 13.65 13.71 13.58 13.03 12.76 13.12 13.26 13.89 15.13 15.97 18.77 18.90 18.92 20.15 20.39 22.48 22.44 23.55 26.00 25.99 23.51 23.86 25.13 25.32 26.43 28.62 32.41 33.34 33.38 33.52 34.35 34.61 33.40 33.20 34.00
4.49 9.16 6.66 8.80 10.40 12.90 11.34 12.01 12.36 12.39 12.39 13.63 13.56 12.53 13.55 13.08 14.31 14.89 17.88 17.79 18.37 18.99 19.67 21.71 21.85 22.42 24.25 26.23 26.86 24.49 24.38 24.81 25.75 27.73 31.77 31.91 31.89 31.81 36.66 36.76 37.13 37.01 36.88 35.08
8.05 9.76 10.08 10.96 11.23 12.01 10.86 11.56 12.06 12.16 12.07 11.98 12.88 13.13 13.82 13.27 14.50 19.36 16.02 17.34 17.86 18.75 19.82 22.14 21.90 22.65 24.33 25.77 26.38 27.02 24.79 25.13 26.46 30.89 29.02 28.30 28.53 29.46 28.56 32.72 35.82 35.65 35.76 35.95
9.57 8.60 9.41 10.75 9.24 11.25 11.38 11.50 12.91 12.23 12.87 13.02 13.10 14.00 13.99 13.69 14.39 14.55 15.20 17.37 18.94 19.13 20.94 22.12 22.11 22.55 24.57 25.15 25.96 27.03 28.06 30.76 27.70 27.45 26.13 25.17 24.93 25.03 25.84 25.23 24.45 26.34 32.98 32.61
9.76 9.68 8.54 11.00 11.75 10.91 10.43 10.31 8.97 8.65 9.49 10.17 12.36 12.50 13.35 12.22 12.39 13.31 15.97 18.19 18.46 18.89 20.26 21.99 22.10 22.15 24.94 24.81 25.03 25.86 27.48 26.82 27.00 26.28 25.76 25.79 25.02 24.38 23.70 22.65 21.67 21.40 22.55 25.70
9.80 9.63 9.77 8.86 9.21 9.02 8.12 7.37 6.10 6.31 7.07 7.94 9.22 11.07 12.44 12.93 13.01 14.09 16.21 16.77 15.58 16.36 20.09 21.94 22.27 22.85 24.98 23.97 23.97 24.53 26.75 29.25 27.41 25.25 24.75 24.24 24.12 23.44 22.96 22.35 21.85 21.20 20.40 20.25
4.90 6.63 6.54 6.71 6.40 1.51 0.25 2.85 4.05 5.21 5.92 7.05 9.29 11.33 12.13 10.60 12.32 12.94 14.51 16.08 16.83 18.15 21.27 21.90 22.85 23.43 25.12 23.75 23.56 23.27 23.84 24.58 26.56 23.18 22.69 22.62 22.16 21.84 21.95 21.77 21.36 21.35 21.83 24.42
-0.67 1.32 0.50 3.13 2.97 3.28 3.35 -2.77 2.05 3.84 5.55 8.24 9.25 10.80 10.27 9.49 10.59 11.90 13.90 15.25 16.37 17.10 21.28 22.01 24.59 23.87 23.51 24.49 23.39 23.44 22.85 22.86 23.22 22.58 22.59 21.59 20.99 21.12 20.65 20.12 19.79 19.48 20.19 22.41
-3.71 -0.98 -1.31 -1.36 0.72 2.20 1.91 1.17 1.83 3.85 5.22 6.67 7.75 9.21 10.93 10.71 11.45 12.84 13.81 13.77 14.31 14.44 19.78 22.05 25.63 23.80 22.58 25.87 23.85 22.91 22.58 22.39 21.76 21.73 22.47 23.25 21.25 20.77 20.16 19.76 19.29 19.37 19.47 19.39
-4.42 -5.90 -6.59 -5.96 -3.16 -5.40 -2.33 -1.64 -0.47 -0.39 4.63 6.15 5.20 6.03 8.02 9.57 11.30 11.96 13.21 12.70 14.68 16.29 21.64 21.95 23.61 22.09 22.90 23.67 25.02 22.03 21.73 21.54 21.10 22.14 22.08 20.81 20.40 20.02 20.73 21.30 19.72 19.16 18.89 18.65
-3.04 -3.39 -3.94 -4.13 -4.45 -2.00 -4.98 -3.72 -3.95 0.54 3.51 6.54 7.71 9.29 8.56 10.79 12.60 12.37 11.75 10.96 14.51 20.73 20.89 21.44 23.17 22.34 22.69 22.64 21.55 20.82 20.84 20.40 20.54 20.34 20.36 19.92 19.61 19.75 19.56 19.52 19.49 19.33 19.00 18.83
-4.37 -1.33 1.87 4.04 3.37 6.14 7.85 7.00 5.13 6.39 7.11 6.63 9.22 12.40 10.88 10.81 12.00 12.96 14.10 12.67 16.70 22.87 18.69 18.60 23.02 24.25 22.56 21.79 19.76 19.57 19.32 19.75 19.92 20.00 19.74 20.02 19.87 19.13 19.12 19.45 19.24 19.27 19.05 19.01
7.68 8.45 8.40 7.48 7.60 6.62 7.84 8.36 8.56 9.48 9.07 10.05 10.61 11.80 11.34 10.62 11.97 10.85 10.11 14.77 17.28 20.26 16.25 18.65 23.92 23.82 22.08 17.07 17.36 18.04 18.42 17.88 17.84 19.09 19.18 19.40 19.64 19.90 20.38 20.10 20.17 20.29 19.84 20.14
8.44 8.11 5.81 7.91 6.64 5.99 4.66 7.66 7.95 9.40 8.80 10.49 11.21 11.82 12.15 9.90 10.76 12.95 14.88 16.88 19.32 18.60 15.44 19.56 21.65 21.78 19.81 15.51 15.37 15.47 16.76 17.26 16.54 16.62 17.18 20.53 19.17 19.47 19.92 19.70 18.71 19.20 19.10 19.63
7.04 6.12 4.09 4.85 6.70 6.94 7.16 8.12 7.43 7.55 7.76 9.41 10.27 10.20 10.50 11.26 8.37 11.90 11.74 13.55 16.72 16.50 12.20 16.44 19.88 18.31 13.94 14.03 13.61 13.88 14.31 16.66 17.89 14.92 14.94 15.08 15.06 15.49 16.41 17.17 18.53 18.69 16.35 18.25
4.61 4.99 7.07 9.01 7.00 7.27 7.23 8.53 9.44 7.41 9.53 7.54 8.58 10.32 10.90 10.42 9.49 10.36 10.00 13.50 12.27 15.26 11.78 11.83 13.88 14.25 11.67 12.41 12.00 12.51 12.63 13.10 14.15 13.77 13.42 12.96 12.97 13.56 14.74 15.60 16.38 16.78 18.17 19.95
4.54 10.93 6.97 6.28 7.37 7.42 7.82 10.71 7.85 7.31 8.11 6.62 7.49 11.09 9.35 9.80 9.59 10.33 11.83 7.67 9.01 11.50 11.44 11.06 11.49 13.73 11.32 10.71 9.45 9.83 10.74 10.45 14.75 12.34 10.52 10.33 10.63 11.07 12.65 13.73 14.95 17.19 17.78 18.12
MSLP
1028.77 1028.85 1028.87 1028.87 1029.21 1029.66 1030.36 1030.88 1031.96 1031.96 1033.06 1033.91 1034.21 1034.29 1033.90 1033.25 1032.47 1031.96 1031.42 1030.91 1030.48 1029.79 1028.88 1028.07 1027.15 1026.30 1025.50 1024.56 1023.64 1022.83 1021.85 1021.12 1020.33 1019.27 1018.41 1016.77 1015.15 1014.75 1013.29 1012.38 1011.34 1010.65 1010.36 1009.69
1029.48 1029.23 1029.41 1029.65 1029.86 1030.15 1031.01 1031.58 1032.36 1033.32 1034.36 1034.87 1034.87 1034.58 1033.91 1033.28 1032.80 1032.17 1031.54 1030.93 1030.24 1029.45 1028.64 1027.69 1026.79 1025.70 1024.76 1023.78 1022.85 1022.01 1021.20 1020.19 1019.38 1018.44 1017.48 1016.06 1014.85 1014.18 1013.00 1011.81 1010.64 1010.01 1009.58 1008.77
1030.14 1030.10 1030.42 1030.79 1031.17 1031.76 1032.49 1033.57 1034.57 1035.12 1035.64 1035.47 1035.13 1034.76 1034.43 1033.48 1032.99 1032.33 1031.56 1030.67 1029.72 1028.95 1028.08 1027.20 1026.28 1025.40 1024.16 1023.12 1022.19 1021.19 1020.12 1019.28 1018.50 1017.69 1016.60 1015.76 1014.22 1013.22 1012.19 1010.69 1009.17 1009.52 1008.67 1007.66
1031.08 1031.38 1031.81 1032.11 1032.42 1033.06 1034.08 1035.18 1035.79 1036.09 1036.25 1036.13 1035.81 1035.09 1034.50 1033.58 1033.01 1032.34 1031.47 1030.38 1029.37 1028.40 1027.45 1026.53 1025.57 1024.62 1023.54 1022.58 1021.56 1020.46 1019.29 1018.10 1017.33 1016.48 1015.31 1014.03 1013.81 1013.23 1011.71 1010.40 1009.58 1008.80 1007.77 1006.90
1032.00 1032.49 1032.49 1032.97 1033.44 1034.25 1035.10 1036.18 1036.60 1036.80 1036.59 1036.26 1035.62 1034.79 1033.91 1033.30 1032.96 1032.11 1031.08 1029.95 1028.86 1027.89 1026.89 1025.80 1024.78 1023.88 1022.87 1021.81 1020.85 1019.75 1018.44 1017.48 1016.08 1015.42 1014.80 1014.38 1013.54 1012.29 1011.01 1010.03 1008.85 1007.98 1007.16 1006.37
1032.87 1033.37 1033.47 1033.54 1034.02 1034.49 1035.52 1036.77 1036.86 1037.00 1036.80 1036.37 1035.84 1034.93 1033.50 1033.16 1032.44 1031.42 1030.52 1029.49 1028.26 1027.23 1026.12 1025.04 1023.88 1023.08 1022.07 1020.95 1019.98 1018.76 1017.75 1016.71 1016.26 1015.40 1014.73 1013.80 1012.77 1011.74 1010.49 1009.52 1008.09 1007.55 1006.65 1005.88
1033.03 1033.51 1033.72 1034.12 1034.50 1034.84 1036.48 1037.52 1036.98 1036.95 1036.77 1036.41 1036.11 1035.46 1033.84 1032.99 1032.04 1031.15 1030.04 1028.83 1027.72 1026.66 1025.58 1024.28 1023.19 1022.22 1021.00 1019.87 1018.85 1017.80 1016.92 1016.14 1015.42 1014.77 1013.93 1012.93 1011.91 1010.47 1009.31 1008.30 1007.79 1007.13 1006.52 1006.05
1034.02 1034.52 1034.95 1034.73 1035.12 1036.11 1037.02 1036.80 1036.94 1036.89 1036.64 1036.18 1035.53 1034.65 1033.64 1032.59 1031.57 1030.41 1029.26 1028.03 1027.00 1025.91 1024.64 1023.32 1022.34 1021.34 1019.91 1018.68 1017.40 1016.59 1015.81 1015.03 1014.23 1013.52 1012.87 1011.90 1010.69 1009.46 1008.34 1007.79 1007.35 1007.20 1006.98 1006.71
1034.79 1035.13 1035.48 1035.76 1036.28 1036.78 1037.00 1037.14 1036.98 1036.83 1036.38 1035.91 1035.18 1034.35 1033.39 1032.35 1031.30 1030.11 1028.94 1027.71 1026.56 1025.36 1023.90 1022.50 1021.48 1020.41 1018.98 1017.49 1016.42 1015.40 1014.85 1014.06 1013.47 1012.70 1011.70 1010.62 1009.74 1008.42 1007.85 1007.65 1007.70 1007.46 1007.30 1007.09
1035.43 1036.08 1036.26 1036.59 1036.87 1037.07 1037.24 1037.20 1036.94 1036.70 1036.28 1035.68 1034.97 1034.17 1033.21 1032.27 1031.12 1029.94 1028.69 1027.40 1026.10 1024.73 1023.25 1021.80 1020.58 1019.43 1018.37 1016.88 1015.67 1014.98 1014.28 1013.51 1012.83 1011.99 1010.62 1009.43 1008.52 1008.12 1007.93 1007.85 1007.68 1007.61 1007.68 1007.60
1036.46 1036.66 1036.70 1037.00 1037.18 1037.35 1037.30 1037.14 1036.88 1036.60 1036.14 1035.55 1034.90 1034.08 1033.39 1032.31 1031.14 1029.91 1028.55 1027.00 1025.89 1024.49 1022.90 1021.37 1020.07 1018.64 1017.60 1016.08 1015.17 1014.43 1013.83 1013.13 1012.12 1011.12 1010.10 1009.09 1008.38 1008.15 1007.96 1007.89 1007.78 1007.95 1008.17 1008.19
1037.37 1037.47 1037.62 1037.52 1037.51 1037.47 1037.48 1037.30 1036.97 1036.44 1035.86 1035.50 1035.04 1034.32 1033.42 1032.29 1031.11 1029.86 1028.28 1027.02 1025.66 1024.25 1022.72 1021.02 1019.75 1018.28 1016.87 1015.82 1014.52 1013.62 1013.05 1012.36 1011.61 1010.75 1009.71 1009.21 1009.12 1008.96 1008.62 1008.57 1008.72 1008.72 1008.95 1008.95
1038.03 1037.86 1037.80 1037.71 1037.74 1037.75 1037.70 1037.53 1037.14 1036.63 1036.06 1035.40 1034.73 1034.23 1033.34 1032.32 1031.11 1029.60 1028.54 1027.13 1025.73 1024.25 1022.72 1021.05 1019.63 1018.15 1016.56 1015.18 1013.99 1012.85 1012.30 1011.70 1011.13 1010.51 1010.43 1010.49 1010.25 1010.11 1009.94 1010.17 1010.07 1010.23 1010.31 1010.28
1038.40 1038.34 1038.12 1038.06 1038.18 1038.06 1037.98 1037.64 1037.24 1036.82 1036.35 1035.78 1034.97 1034.13 1033.36 1032.40 1031.08 1029.84 1028.63 1027.35 1025.91 1024.32 1022.57 1021.23 1019.75 1018.23 1016.70 1015.26 1013.96 1012.77 1011.94 1011.59 1011.48 1011.47 1011.60 1011.79 1011.85 1011.73 1011.47 1011.37 1011.49 1011.79 1011.70 1011.52
1038.87 1038.87 1038.77 1038.61 1038.44 1038.35 1038.29 1037.93 1037.50 1037.08 1036.56 1035.71 1035.04 1034.33 1033.35 1032.31 1031.19 1030.03 1028.82 1027.51 1026.05 1024.47 1022.80 1021.11 1019.64 1018.37 1017.15 1015.95 1014.59 1013.41 1012.77 1012.56 1012.48 1012.49 1012.53 1012.88 1013.08 1012.86 1012.85 1012.86 1013.08 1013.27 1013.31 1013.17
1039.35 1039.15 1039.00 1039.02 1038.89 1038.81 1038.71 1038.39 1038.15 1037.55 1036.87 1035.95 1035.20 1034.30 1033.45 1032.59 1031.46 1030.23 1029.05 1027.71 1026.33 1024.65 1023.15 1021.75 1020.44 1019.00 1017.65 1016.53 1015.44 1014.69 1014.09 1013.71 1013.60 1013.57 1013.80 1014.04 1014.05 1014.14 1014.14 1014.09 1014.18 1014.32 1014.47 1014.78
1040.25 1039.83 1039.71 1039.61 1039.53 1039.38 1039.25 1038.89 1038.54 1037.95 1037.11 1036.22 1035.40 1034.49 1033.54 1032.62 1031.50 1030.38 1029.30 1028.06 1026.84 1025.33 1023.70 1022.28 1021.14 1019.96 1018.43 1017.71 1016.86 1016.22 1015.61 1015.14 1014.90 1014.86 1015.17 1015.41 1015.46 1015.44 1015.40 1015.38 1015.39 1015.57 1015.89 1016.11
1040.72 1040.43 1040.33 1040.22 1040.03 1039.68 1039.25 1038.89 1038.48 1037.91 1037.17 1036.29 1035.48 1034.60 1033.78 1032.98 1032.05 1030.96 1029.83 1028.55 1027.14 1025.65 1024.16 1022.91 1021.78 1020.81 1019.68 1018.80 1018.02 1017.40 1016.90 1016.63 1016.45 1016.46 1016.63 1016.73 1016.84 1016.74 1016.74 1016.80 1016.97 1017.09 1017.46 1017.62
1041.05 1040.77 1040.52 1040.28 1039.99 1039.82 1039.48 1038.99 1038.47 1037.76 1036.95 1036.14 1035.45 1034.72 1034.01 1033.28 1032.40 1031.31 1030.24 1029.08 1027.82 1026.52 1025.00 1023.86 1022.66 1021.67 1020.84 1019.75 1019.18 1018.74 1018.53 1018.24 1018.16 1018.13 1018.09 1018.19 1018.24 1018.10 1018.22 1018.27 1018.39 1018.54 1018.68 1018.95
1040.96 1040.61 1040.35 1040.19 1039.55 1039.51 1039.43 1038.55 1038.04 1037.43 1036.64 1035.93 1035.30 1034.67 1034.06 1033.26 1032.45 1031.51 1030.59 1029.84 1028.78 1027.69 1026.11 1024.84 1023.71 1022.85 1021.85 1021.17 1020.59 1020.49 1020.18 1020.00 1019.88 1019.62 1019.53 1019.64 1019.64 1019.55 1019.67 1019.69 1019.91 1020.10 1020.31 1020.64
1040.48 1040.29 1040.10 1039.93 1039.64 1038.82 1038.48 1038.07 1037.63 1037.20 1036.36 1035.72 1035.19 1034.53 1034.04 1033.32 1032.60 1031.77 1030.81 1030.02 1029.00 1027.83 1026.82 1025.73 1024.68 1023.95 1023.31 1022.75 1022.37 1022.01 1021.80 1021.66 1021.31 1021.02 1020.88 1020.92 1020.93 1020.92 1020.96 1021.03 1021.17 1021.38 1021.54 1021.77
1039.82 1039.60 1039.32 1038.91 1038.77 1038.39 1037.96 1037.61 1037.22 1036.70 1036.13 1035.52 1034.89 1034.33 1033.86 1033.32 1032.72 1032.01 1031.27 1030.85 1029.77 1028.58 1027.86 1026.79 1025.86 1025.18 1024.69 1024.26 1023.94 1023.64 1023.36 1023.10 1022.69 1022.39 1022.21 1022.06 1022.09 1022.12 1022.08 1022.17 1022.28 1022.53 1022.67 1022.77
1038.92 1038.74 1038.57 1038.37 1038.15 1037.95 1037.60 1037.26 1036.88 1036.44 1035.95 1035.41 1034.87 1034.38 1033.91 1033.49 1032.98 1032.34 1031.46 1030.80 1030.00 1029.35 1028.88 1027.79 1026.84 1026.36 1026.12 1025.80 1025.43 1025.00 1024.74 1024.47 1024.20 1023.90 1023.61 1023.36 1023.22 1023.08 1023.03 1023.14 1023.24 1023.31 1023.40 1023.46
1038.54 1038.42 1038.29 1038.03 1037.77 1037.56 1037.36 1036.93 1036.55 1036.12 1035.73 1035.21 1034.79 1034.41 1033.98 1033.47 1032.99 1032.63 1032.22 1031.47 1030.57 1029.72 1029.53 1028.51 1027.67 1027.48 1027.32 1027.10 1026.78 1026.41 1026.02 1025.80 1025.60 1025.29 1024.89 1024.52 1024.32 1024.12 1024.00 1024.09 1024.14 1024.16 1024.15 1024.16
1038.37 1038.23 1038.02 1037.82 1037.68 1037.43 1037.06 1036.65 1036.28 1035.93 1035.52 1035.09 1034.65 1034.31 1033.97 1033.59 1033.37 1032.67 1032.29 1031.83 1031.22 1030.52 1030.08 1029.59 1028.67 1028.48 1028.30 1028.08 1027.85 1027.60 1027.24 1026.85 1026.62 1026.32 1026.03 1025.76 1025.52 1025.31 1025.02 1024.84 1024.69 1024.74 1024.72 1024.62
1038.31 1038.20 1037.95 1037.76 1037.60 1037.31 1036.95 1036.54 1036.14 1035.92 1035.43 1035.08 1034.62 1034.26 1033.91 1033.57 1033.15 1032.65 1032.31 1031.98 1031.65 1031.17 1030.81 1030.31 1029.62 1029.32 1029.37 1029.01 1028.78 1028.45 1028.09 1027.75 1027.52 1027.29 1027.10 1026.85 1026.56 1026.28 1025.96 1025.66 1025.43 1025.23 1025.01 1024.76
1038.40 1038.04 1038.06 1037.82 1037.55 1037.27 1036.86 1036.42 1036.25 1035.94 1035.62 1035.12 1034.63 1034.21 1033.94 1033.62 1033.27 1032.81 1032.41 1032.11 1031.82 1031.50 1031.20 1030.84 1030.45 1029.80 1029.69 1029.49 1029.40 1029.18 1028.85 1028.66 1028.00 1027.90 1027.85 1027.64 1027.36 1027.11 1026.71 1026.37 1026.06 1025.65 1025.33 1025.10
Wind_Speed
3 6 5 6 6 7 7 9 7 11 6 3 6 7 7 8 13 16 16 11 14 16 16 16 16 15 15 16 16 15 15 16 16 17 19 17 14 17 16 14 13 11 13 12
3 8 6 8 8 6 7 7 3 3 5 4 6 7 10 14 16 16 13 16 19 18 18 17 17 18 18 18 17 16 15 17 16 17 17 17 14 17 16 13 13 10 12 12
4 2 5 7 2 2 0 3 1 3 4 4 8 13 13 17 16 13 15 21 21 19 18 18 17 18 19 19 18 18 17 16 16 16 17 16 15 18 17 15 12 13 13 10
4 2 2 2 2 3 3 1 3 2 4 5 8 11 11 15 9 14 20 21 20 18 18 19 19 18 19 18 18 18 18 17 17 16 17 16 17 17 15 13 13 12 13 9
2 3 3 1 3 2 4 4 2 2 7 9 12 13 8 4 12 19 19 19 18 18 20 19 19 18 18 18 18 18 18 17 16 16 18 17 18 17 15 14 12 11 11 8
2 2 5 5 1 4 4 5 3 2 6 11 12 10 10 14 18 19 19 19 20 20 20 19 19 18 18 19 18 18 17 16 16 16 16 18 17 17 15 15 9 8 8 5
6 6 3 1 5 1 6 7 3 5 8 10 9 10 17 18 17 18 19 20 20 18 18 20 19 18 19 18 18 18 17 16 16 16 16 16 17 14 13 9 6 4 2 3
2 1 6 2 1 2 3 3 5 6 8 11 13 15 16 17 18 20 19 20 20 18 19 20 19 17 18 19 19 17 16 16 16 15 13 13 14 14 10 4 1 1 2 3
1 2 1 4 7 1 2 3 4 7 10 11 14 15 17 17 18 18 20 19 19 18 19 19 18 17 18 19 18 16 14 15 14 15 15 13 13 5 1 2 1 2 2 4
2 2 3 4 3 2 1 4 7 6 10 11 14 15 17 16 17 17 18 19 18 19 19 20 17 18 17 19 14 13 14 14 13 13 14 12 4 1 1 2 3 4 3 4
2 2 5 5 4 1 5 6 7 9 9 12 12 14 15 16 17 16 18 17 17 18 18 20 19 19 18 17 12 11 11 11 12 9 10 4 3 3 4 5 5 4 4 4
2 3 2 5 5 5 6 6 9 10 12 11 10 13 15 15 14 16 17 18 17 19 21 19 19 19 18 15 14 10 9 8 7 7 3 4 6 9 22 23 23 22 19 12
1 1 4 6 4 3 4 8 9 9 11 12 14 12 14 14 14 20 17 18 18 20 21 18 19 18 17 16 14 10 7 7 6 3 7 6 6 6 10 16 26 24 23 24
3 4 2 2 4 6 6 8 10 9 8 10 11 12 13 14 16 16 17 18 18 20 18 17 18 17 17 16 14 11 4 7 5 5 7 7 7 7 6 8 10 10 22 20
3 1 5 5 4 5 6 7 9 9 10 11 11 12 13 15 15 16 16 17 18 18 18 18 18 18 16 15 13 13 6 6 6 6 8 9 6 8 8 9 9 8 7 14
5 5 1 4 5 7 8 7 7 9 10 10 11 13 14 13 13 14 15 16 17 17 19 17 16 18 14 15 14 11 9 16 12 7 7 7 7 7 7 8 9 9 9 8
2 3 3 4 5 5 5 6 6 7 8 9 12 12 13 12 12 14 15 16 16 17 16 17 15 16 14 14 12 9 8 8 16 9 8 7 8 8 8 8 10 10 11 13
4 3 4 6 6 6 7 5 6 7 6 9 10 10 10 11 12 14 14 16 15 17 17 17 17 15 15 14 13 10 9 9 9 9 8 9 9 8 9 9 10 10 9 12
5 5 6 6 6 6 6 6 6 7 7 7 8 9 9 9 10 12 13 13 15 16 18 17 25 19 15 20 16 11 10 10 10 9 8 12 9 10 9 9 10 10 9 9
4 4 4 6 5 3 6 6 6 6 7 6 6 6 8 9 10 11 11 10 12 11 16 17 15 14 14 17 21 10 11 10 9 8 9 8 8 9 9 14 10 9 9 8
6 5 5 4 5 5 5 5 4 6 7 6 6 7 7 8 8 9 10 10 15 16 18 21 14 10 9 12 12 10 10 9 9 9 9 8 8 9 9 9 8 8 8 7
3 3 4 4 3 5 5 5 4 5 6 6 6 6 6 9 8 8 6 8 9 21 13 10 9 19 13 18 9 9 9 9 8 7 7 7 7 8 8 7 8 7 6 6
2 3 4 5 4 5 5 5 5 6 6 6 6 8 5 6 6 6 8 11 9 14 9 9 18 21 20 10 9 9 9 9 8 7 7 7 7 6 6 6 6 5 5 5
3 3 3 4 4 4 5 5 5 5 5 6 6 6 6 6 6 3 6 12 17 15 10 12 14 19 16 7 8 8 8 7 7 7 7 10 6 6 6 6 5 5 5 6
3 4 3 3 3 3 5 5 5 4 6 5 6 5 6 4 2 6 5 6 13 10 7 14 17 17 7 7 7 7 6 6 5 6 6 6 6 5 5 5 3 3 2 2
4 3 3 3 3 3 4 5 3 4 5 6 5 5 4 4 4 5 4 9 5 9 6 6 7 6 5 6 6 6 6 6 6 5 6 5 5 5 5 5 4 4 3 3
3 5 2 3 2 3 4 4 5 4 6 6 7 3 4 4 6 7 10 5 5 4 4 4 5 7 4 4 4 5 4 4 7 4 4 4 4 4 5 5 5 5 4 4
Wind_Direction
275 274 258 248 253 253 246 247 214 286 243 294 313 314 300 299 330 328 325 322 321 318 317 315 313 310 308 304 306 304 302 301 297 301 299 300 310 301 295 292 282 274 271 254
264 259 254 278 268 268 277 296 256 13 284 223 283 297 327 332 323 320 319 316 317 314 313 312 311 309 307 305 304 303 298 301 298 301 298 301 306 297 290 289 277 273 271 253
263 336 335 287 260 327 320 70 326 273 247 313 331 337 327 315 313 311 315 316 314 312 310 308 306 306 302 303 304 299 298 297 295 298 296 297 304 301 298 297 304 284 277 255
255 340 245 269 131 138 128 91 323 320 328 314 295 303 301 293 301 317 313 310 308 307 307 305 303 300 300 300 298 297 295 297 295 296 301 310 298 291 293 296 282 285 286 226
212 197 309 270 330 80 102 276 246 298 318 315 316 311 283 293 321 309 307 305 304 304 302 300 299 301 297 297 295 295 293 294 303 303 300 298 293 295 295 290 280 284 281 205
122 182 256 221 279 28 116 282 270 312 313 322 330 310 306 324 314 309 307 306 305 305 304 303 299 299 295 293 293 290 289 294 293 293 289 290 291 287 285 273 276 274 264 225
232 251 270 202 317 335 76 253 305 325 319 309 302 284 299 308 306 306 305 305 307 308 301 298 299 300 293 290 287 286 287 287 288 286 284 286 281 282 281 273 265 278 38 35
76 24 273 339 82 210 241 286 307 318 308 301 300 303 306 309 312 311 313 315 312 308 304 303 303 300 294 291 289 290 288 286 288 288 285 282 283 281 255 255 195 69 72 76
171 218 74 20 101 348 289 291 301 301 308 308 306 310 313 315 313 315 317 312 310 308 305 306 305 301 299 294 295 290 289 289 290 286 286 285 278 276 359 58 125 81 54 89
166 85 127 126 143 16 28 286 295 292 306 308 312 316 315 315 316 316 313 312 311 315 311 310 310 310 303 299 289 288 286 289 283 285 293 294 281 272 160 133 124 101 84 73
344 66 92 219 69 6 333 309 317 317 309 316 318 317 316 314 313 313 312 314 320 317 316 313 319 314 311 303 295 283 281 273 286 288 291 305 39 46 80 73 70 83 69 71
235 165 180 278 328 333 331 330 325 318 325 322 321 314 316 314 315 313 316 321 321 320 321 320 322 316 315 312 307 273 274 280 287 299 332 26 71 74 69 76 74 73 72 75
222 340 232 271 299 1 320 329 317 329 318 322 321 318 318 315 314 321 319 323 324 323 318 324 325 323 323 326 321 304 275 291 296 4 42 29 33 58 78 69 71 66 69 71
55 356 308 49 311 326 340 328 325 316 316 320 316 318 318 317 316 322 326 323 323 322 321 328 328 333 332 332 327 328 326 12 39 60 74 52 40 44 51 63 65 54 57 69
9 274 235 281 308 335 335 333 335 328 325 326 327 321 326 326 324 322 321 324 326 327 329 335 340 342 340 340 347 359 23 35 51 71 80 76 62 59 59 64 64 59 50 52
308 303 337 324 319 328 332 338 325 318 318 319 322 326 326 319 317 320 328 330 336 334 333 339 346 343 347 354 3 9 16 59 66 60 66 67 62 65 65 68 70 65 57 46
335 319 323 312 307 295 284 288 280 293 302 313 317 317 325 324 326 336 335 332 331 331 338 339 354 350 352 7 11 14 20 37 58 55 55 56 60 61 64 66 69 67 63 62
216 244 240 250 278 296 303 282 294 295 297 305 308 317 328 335 333 329 333 330 333 342 350 344 359 1 359 20 19 22 27 33 46 54 57 55 54 57 60 63 62 65 63 60
215 250 270 263 258 264 277 286 284 286 294 298 317 325 323 320 324 327 333 337 344 344 350 343 3 2 7 24 29 25 27 36 42 44 53 64 55 54 55 58 60 59 59 58
292 272 267 272 295 222 278 277 288 298 299 308 308 316 328 328 328 329 338 343 337 329 347 344 1 3 9 17 30 24 25 32 37 46 57 54 54 58 59 64 67 63 63 63
273 278 278 287 287 291 259 261 291 312 306 314 315 316 318 314 327 329 346 353 338 347 351 348 8 12 13 25 23 23 24 23 33 40 49 50 51 54 58 57 58 56 60 61
262 277 289 295 300 308 311 309 306 308 314 316 314 328 334 342 341 339 343 340 336 357 350 341 10 23 23 26 16 23 23 22 28 34 40 47 54 55 55 55 60 59 59 59
294 302 322 325 322 313 320 331 327 322 324 325 330 336 337 334 334 339 342 339 342 3 353 335 17 26 26 14 13 17 27 24 23 28 38 41 46 49 55 58 53 58 53 53
327 329 308 326 327 344 335 320 323 320 315 314 326 330 334 334 333 341 334 335 341 3 2 350 15 23 26 13 12 13 13 27 20 20 26 39 28 31 43 56 54 43 46 54
333 319 316 335 330 310 309 311 311 318 317 322 327 315 313 309 278 313 337 331 348 1 346 351 10 20 10 13 10 11 11 10 32 21 20 26 23 22 24 26 24 62 48 62
337 317 316 342 331 320 310 311 322 323 330 327 318 320 306 304 308 335 323 348 346 355 343 340 345 25 9 6 8 5 7 3 22 14 26 16 15 13 15 13 12 11 5 358
337 6 35 345 325 322 310 340 345 316 325 309 295 305 310 323 321 338 336 326 327 329 337 338 339 349 11 15 1 359 1 1 11 27 8 8 7 2 2 0 354 354 359 8